Flag for U.S.A. Weather past 2 weeks in Victorville, California, U.S.A.

Now
54 °F

Clear.


Feels Like: 54 °F
Forecast: 49 / 85 °F
Wind: No wind

Location: George Air Force Base / Victorvi

Current Time: Sep 30, 2014 at 7:56:16 AM

Latest Report: Sep 30, 2014 at 7:15 AM


Visibility: 10 mi

Pressure: 29.96 "Hg

Humidity: 51%

Dew point: 36 °F

Location of VictorvilleLocation

Historic Weather in Victorville — Graph

°F

Victorville temperature yesterday

Maximum temperature yesterday: 75 °F (at 1:55 PM)
Minimum temperature yesterday: 52 °F (at 6:15 AM)
Average temperature yesterday: 64 °F

Past Weeks' High & Low Weather Summary

 TemperatureHumidityPressure
High100 °F (Sep 15, 3:15 PM)88% (Sep 19, 6:55 AM)30.09 "Hg (Sep 19, 6:55 AM)
Low52 °F (Sep 27, 3:15 AM)8% (Sep 23, 1:35 PM)29.80 "Hg (Sep 17, 5:15 PM)
Average74 °F40%29.95 "Hg
* Reported Sep 15 6:15 AM — Sep 30 6:35 AM, Victorville, Weather by CustomWeather, © 2014

Note: Actual official high and low records may vary slightly from our data, if they occured in-between our weather recording intervals... More about our weather records

Advertising

Victorville weather history for previous 24 hours

 ConditionsComfort  
Time TempWeatherWind HumidityBarometerVisibility
6:35 AM
Sep 30
54 °FClear.7 mph51%29.97 "Hg10 mi
6:15 AM54 °FClear.7 mph51%29.96 "Hg10 mi
5:55 AM52 °FClear.6 mph54%29.96 "Hg10 mi
5:35 AM54 °FClear.No wind51%29.97 "Hg10 mi
5:15 AM55 °FClear.No wind51%29.97 "Hg10 mi
4:55 AM55 °FClear.No wind51%29.96 "Hg10 mi
4:35 AM55 °FClear.No wind47%29.96 "Hg10 mi
4:15 AM55 °FClear.No wind51%29.97 "Hg10 mi
3:55 AM54 °FClear.No wind54%29.97 "Hg10 mi
3:35 AM54 °FClear.No wind51%29.98 "Hg10 mi
3:15 AM54 °FClear.No wind54%29.98 "Hg10 mi
2:55 AM54 °FClear.No wind54%29.98 "Hg10 mi
2:15 AM55 °FClear.5 mph51%29.99 "Hg10 mi
1:55 AM57 °FClear.5 mph48%30.00 "Hg10 mi
1:15 AM55 °FClear.6 mph51%29.99 "Hg10 mi
12:55 AM57 °FClear.5 mph48%29.99 "Hg10 mi
12:35 AM57 °FClear.7 mph48%30.00 "Hg10 mi
12:15 AM57 °FClear.5 mph48%30.01 "Hg10 mi
11:55 PM
Sep 29
59 °FClear.3 mph45%30.01 "Hg10 mi
11:35 PM59 °FClear.3 mph45%30.01 "Hg10 mi
11:15 PM61 °FClear.7 mph42%30.01 "Hg10 mi
10:55 PM61 °FClear.7 mph42%30.01 "Hg10 mi
10:35 PM63 °FClear.7 mph34%30.01 "Hg10 mi
10:15 PM63 °FClear.7 mph34%30.00 "Hg10 mi
9:55 PM63 °FClear.5 mph34%30.00 "Hg10 mi
9:35 PM63 °FClear.5 mph32%30.00 "Hg10 mi
9:15 PM63 °FClear.No wind34%29.99 "Hg10 mi
8:55 PM64 °FClear.3 mph30%29.98 "Hg10 mi
8:15 PM68 °FClear.No wind28%29.97 "Hg10 mi
7:55 PM70 °FClear.No wind27%29.96 "Hg10 mi
7:15 PM72 °FSunny.No wind25%29.96 "Hg10 mi
6:55 PM72 °FSunny.3 mph25%29.96 "Hg10 mi
6:35 PM73 °FSunny.3 mph25%29.96 "Hg10 mi
6:15 PM73 °FSunny.3 mph23%29.96 "Hg10 mi
5:55 PM75 °FSunny.3 mph22%29.96 "Hg10 mi
5:35 PM75 °FSunny.6 mph22%29.96 "Hg10 mi
5:15 PM75 °FSunny.6 mph22%29.96 "Hg10 mi
4:55 PM75 °FSunny.No wind24%29.95 "Hg10 mi
4:35 PM75 °FSunny.6 mph24%29.96 "Hg10 mi
4:15 PM75 °FSunny.5 mph24%29.96 "Hg10 mi
3:55 PM75 °FSunny.10 mph24%29.96 "Hg10 mi
3:35 PM75 °FSunny.8 mph25%29.97 "Hg10 mi
3:15 PM75 °FSunny.6 mph25%29.97 "Hg10 mi
2:55 PM75 °FSunny.7 mph25%29.97 "Hg10 mi
2:15 PM75 °FSunny.5 mph25%29.98 "Hg10 mi
1:55 PM75 °FSunny.7 mph25%29.98 "Hg10 mi
1:35 PM73 °FSunny.6 mph27%29.98 "Hg10 mi
1:15 PM72 °FScattered clouds.5 mph31%29.99 "Hg10 mi
12:55 PM73 °FScattered clouds.5 mph29%29.99 "Hg10 mi
12:35 PM72 °FSunny.No wind31%29.99 "Hg10 mi
12:15 PM70 °FSunny.No wind33%29.99 "Hg10 mi
11:55 AM72 °FScattered clouds.5 mph31%29.99 "Hg10 mi
11:35 AM70 °FSunny.3 mph33%30.00 "Hg10 mi
11:15 AM70 °FSunny.5 mph33%30.01 "Hg10 mi
10:55 AM66 °FSunny.No wind40%30.02 "Hg10 mi
10:35 AM66 °FSunny.No wind40%30.02 "Hg10 mi
10:15 AM66 °FSunny.No wind40%30.03 "Hg2 mi
9:55 AM64 °FSunny.3 mph43%30.03 "Hg10 mi
9:35 AM63 °FSunny.No wind49%30.03 "Hg10 mi
9:15 AM61 °FSunny.No wind55%30.04 "Hg10 mi
8:55 AM61 °FSunny.No wind55%30.04 "Hg10 mi
8:35 AM57 °FSunny.No wind63%30.04 "Hg10 mi
8:15 AM57 °FSunny.No wind63%30.04 "Hg10 mi
7:55 AM55 °FSunny.No wind67%30.02 "Hg10 mi
7:15 AM52 °FClear.No wind72%30.01 "Hg10 mi
Weather by CustomWeather, © 2014

See weather overviewHow to use our weather pages